MCA2456 KPDX-CYVR

Flight info

Callsign MCA2456
Flight time 0h 50m
Altitude 28000
Route BTG J1 SEA DCT PAE GRIZZ9
Aircraft B738/M-SDE3GHIRWX/LB1

Departure

Time 2026-05-04 00:18
Airport Portland International Airport (KPDX)

Arrival

Time 2026-05-04 01:08
Airport Vancouver International Airport (CYVR)
Time Latitude Longitude Altitude Speed Heading
2026-05-03 23:27 45.58917 -122.59849 27 ft 0 kts 19°
2026-05-04 00:07 45.58901 -122.59858 27 ft 4 kts 26°
2026-05-04 00:07 45.58879 -122.59878 27 ft 4 kts 45°
2026-05-04 00:07 45.58864 -122.59909 27 ft 4 kts 76°
2026-05-04 00:08 45.58865 -122.59938 27 ft 1 kts 119°
2026-05-04 00:08 45.58865 -122.59939 27 ft 1 kts 119°
2026-05-04 00:13 45.58842 -122.59881 27 ft 13 kts 119°
2026-05-04 00:13 45.58790 -122.59747 27 ft 16 kts 119°
2026-05-04 00:13 45.58738 -122.59611 27 ft 15 kts 119°
2026-05-04 00:13 45.58686 -122.59485 27 ft 15 kts 123°
2026-05-04 00:14 45.58620 -122.59357 27 ft 17 kts 128°
2026-05-04 00:14 45.58551 -122.59236 27 ft 16 kts 129°
2026-05-04 00:14 45.58480 -122.59114 27 ft 16 kts 129°
2026-05-04 00:14 45.58415 -122.58991 27 ft 15 kts 124°
2026-05-04 00:15 45.58363 -122.58865 27 ft 14 kts 119°
2026-05-04 00:15 45.58315 -122.58741 27 ft 14 kts 119°
2026-05-04 00:15 45.58269 -122.58623 27 ft 13 kts 119°
2026-05-04 00:15 45.58225 -122.58511 27 ft 13 kts 119°
2026-05-04 00:16 45.58185 -122.58409 27 ft 8 kts 120°
2026-05-04 00:16 45.58149 -122.58367 26 ft 0 kts 162°
2026-05-04 00:16 45.58135 -122.58365 26 ft 5 kts 179°
2026-05-04 00:17 45.58081 -122.58391 26 ft 10 kts 224°
2026-05-04 00:17 45.58090 -122.58482 27 ft 10 kts 297°
2026-05-04 00:17 45.58201 -122.58776 28 ft 69 kts 300°
2026-05-04 00:17 45.58555 -122.59678 29 ft 136 kts 299°
2026-05-04 00:18 45.59103 -122.61085 168 ft 181 kts 299°
2026-05-04 00:18 45.59733 -122.62712 888 ft 196 kts 299°
2026-05-04 00:18 45.60393 -122.64495 1623 ft 207 kts 300°
2026-05-04 00:18 45.61057 -122.66311 2444 ft 199 kts 300°
2026-05-04 00:19 45.61666 -122.68003 3505 ft 188 kts 300°
2026-05-04 00:19 45.62431 -122.69683 4045 ft 208 kts 322°
2026-05-04 00:19 45.63798 -122.70393 4208 ft 229 kts
2026-05-04 00:19 45.65323 -122.69605 4427 ft 256 kts 39°
2026-05-04 00:20 45.66631 -122.67675 5089 ft 266 kts 46°
2026-05-04 00:20 45.67989 -122.65878 6011 ft 266 kts 40°
2026-05-04 00:20 45.69477 -122.64241 6787 ft 273 kts 36°
2026-05-04 00:20 45.71052 -122.62695 7531 ft 278 kts 34°
2026-05-04 00:21 45.72647 -122.61195 8387 ft 281 kts 33°
2026-05-04 00:21 45.74307 -122.59685 9163 ft 287 kts 28°
2026-05-04 00:21 45.76224 -122.58879 9952 ft 291 kts
2026-05-04 00:21 45.78257 -122.58522 10537 ft 303 kts
2026-05-04 00:22 45.80443 -122.58182 10719 ft 328 kts
2026-05-04 00:22 45.82796 -122.57826 10900 ft 351 kts
2026-05-04 00:22 45.85222 -122.57455 11106 ft 370 kts
2026-05-04 00:22 45.87821 -122.57051 11665 ft 376 kts
2026-05-04 00:23 45.90425 -122.56639 12477 ft 376 kts
2026-05-04 00:23 45.93045 -122.56221 13171 ft 381 kts
2026-05-04 00:23 45.95684 -122.55793 13803 ft 385 kts
2026-05-04 00:23 45.98390 -122.55352 14498 ft 386 kts
2026-05-04 00:24 46.01024 -122.54921 15091 ft 389 kts
2026-05-04 00:24 46.03741 -122.54473 15618 ft 394 kts
2026-05-04 00:24 46.06473 -122.54023 16049 ft 401 kts
2026-05-04 00:24 46.09266 -122.53562 16697 ft 402 kts
2026-05-04 00:25 46.12059 -122.53102 17274 ft 405 kts
2026-05-04 00:25 46.14907 -122.52633 17800 ft 409 kts
2026-05-04 00:25 46.17744 -122.52165 18296 ft 412 kts
2026-05-04 00:25 46.20592 -122.51696 18769 ft 415 kts
2026-05-04 00:26 46.23475 -122.51219 19291 ft 416 kts
2026-05-04 00:26 46.26215 -122.50766 19734 ft 419 kts
2026-05-04 00:26 46.29175 -122.50276 20255 ft 421 kts
2026-05-04 00:26 46.32087 -122.49794 20702 ft 424 kts
2026-05-04 00:27 46.35036 -122.49304 21141 ft 426 kts
2026-05-04 00:27 46.37757 -122.48851 21601 ft 428 kts
2026-05-04 00:27 46.40748 -122.48353 22014 ft 431 kts
2026-05-04 00:27 46.42762 -122.48018 22286 ft 433 kts
2026-05-04 00:28 46.46568 -122.47383 22837 ft 436 kts
2026-05-04 00:28 46.49595 -122.46878 23257 ft 438 kts
2026-05-04 00:29 46.52369 -122.46415 23615 ft 440 kts
2026-05-04 00:29 46.55412 -122.45906 23966 ft 442 kts
2026-05-04 00:29 46.58468 -122.45395 24335 ft 443 kts
2026-05-04 00:29 46.60502 -122.45054 24571 ft 444 kts
2026-05-04 00:30 46.63580 -122.44537 24889 ft 446 kts
2026-05-04 00:30 46.66638 -122.44024 25213 ft 448 kts
2026-05-04 00:30 46.69759 -122.43499 25549 ft 450 kts
2026-05-04 00:30 46.72889 -122.42972 25857 ft 451 kts
2026-05-04 00:31 46.76049 -122.42439 26211 ft 452 kts
2026-05-04 00:31 46.79169 -122.41913 26671 ft 450 kts
2026-05-04 00:31 46.82279 -122.41388 27104 ft 449 kts
2026-05-04 00:31 46.85378 -122.40865 27512 ft 448 kts
2026-05-04 00:32 46.88567 -122.40330 27884 ft 449 kts
2026-05-04 00:32 46.91634 -122.39814 27887 ft 450 kts
2026-05-04 00:32 46.94781 -122.39285 27906 ft 448 kts
2026-05-04 00:32 46.97868 -122.38765 27916 ft 447 kts
2026-05-04 00:33 47.00966 -122.38243 27919 ft 447 kts
2026-05-04 00:33 47.06675 -122.37278 27924 ft 447 kts
2026-05-04 00:33 47.09792 -122.36750 27916 ft 447 kts
2026-05-04 00:34 47.12832 -122.36235 27915 ft 447 kts
2026-05-04 00:34 47.15601 -122.35764 27918 ft 447 kts
2026-05-04 00:34 47.18735 -122.35232 27916 ft 447 kts
2026-05-04 00:34 47.21922 -122.34690 27904 ft 447 kts
2026-05-04 00:35 47.24964 -122.34171 27905 ft 447 kts
2026-05-04 00:35 47.28056 -122.33644 27909 ft 447 kts
2026-05-04 00:35 47.31141 -122.33117 27925 ft 446 kts
2026-05-04 00:35 47.34225 -122.32590 27929 ft 446 kts
2026-05-04 00:36 47.37306 -122.32063 27930 ft 446 kts
2026-05-04 00:36 47.40397 -122.31533 27922 ft 447 kts
2026-05-04 00:36 47.43483 -122.31012 27917 ft 446 kts
2026-05-04 00:36 47.46588 -122.30658 27925 ft 446 kts
2026-05-04 00:37 47.49735 -122.30444 27910 ft 446 kts
2026-05-04 00:37 47.52827 -122.30285 27907 ft 446 kts
2026-05-04 00:37 47.55928 -122.30129 27904 ft 446 kts
2026-05-04 00:37 47.59027 -122.29960 27907 ft 446 kts
2026-05-04 00:38 47.62129 -122.29775 27910 ft 446 kts
2026-05-04 00:38 47.64718 -122.29611 27908 ft 446 kts
2026-05-04 00:38 47.67751 -122.29412 27905 ft 445 kts
2026-05-04 00:38 47.70778 -122.29211 27912 ft 445 kts
2026-05-04 00:39 47.73760 -122.29012 27942 ft 445 kts
2026-05-04 00:39 47.77024 -122.28795 27940 ft 445 kts
2026-05-04 00:39 47.80114 -122.28590 27939 ft 445 kts
2026-05-04 00:39 47.83169 -122.28387 27945 ft 444 kts
2026-05-04 00:40 47.85976 -122.28201 27513 ft 449 kts
2026-05-04 00:40 47.89146 -122.27990 26774 ft 448 kts
2026-05-04 00:40 47.92392 -122.27868 26171 ft 442 kts 358°
2026-05-04 00:40 47.95324 -122.28465 25585 ft 439 kts 351°
2026-05-04 00:41 47.98309 -122.29353 24971 ft 435 kts 349°
2026-05-04 00:41 48.00981 -122.30201 24422 ft 431 kts 349°
2026-05-04 00:41 48.03967 -122.31146 23782 ft 428 kts 349°
2026-05-04 00:41 48.06867 -122.32043 23106 ft 424 kts 349°
2026-05-04 00:42 48.09747 -122.32910 22468 ft 420 kts 350°
2026-05-04 00:42 48.12426 -122.33700 21883 ft 416 kts 350°
2026-05-04 00:42 48.15241 -122.34523 21303 ft 411 kts 350°
2026-05-04 00:42 48.17135 -122.35073 20917 ft 409 kts 350°
2026-05-04 00:43 48.20850 -122.36151 20148 ft 404 kts 350°
2026-05-04 00:43 48.23596 -122.36949 19588 ft 401 kts 349°
2026-05-04 00:43 48.26327 -122.37744 19031 ft 398 kts 349°
2026-05-04 00:43 48.29041 -122.38536 18458 ft 396 kts 349°
2026-05-04 00:44 48.31730 -122.39321 17840 ft 394 kts 349°
2026-05-04 00:44 48.34411 -122.40105 17243 ft 391 kts 349°
2026-05-04 00:44 48.37063 -122.40882 16718 ft 386 kts 349°
2026-05-04 00:44 48.39692 -122.41652 16172 ft 383 kts 349°
2026-05-04 00:45 48.42300 -122.42417 15638 ft 380 kts 349°
2026-05-04 00:45 48.44638 -122.43104 15159 ft 377 kts 349°
2026-05-04 00:45 48.47125 -122.43836 14646 ft 375 kts 349°
2026-05-04 00:45 48.49697 -122.44593 14121 ft 373 kts 349°
2026-05-04 00:46 48.52035 -122.45281 13620 ft 371 kts 349°
2026-05-04 00:46 48.54558 -122.46025 13032 ft 369 kts 349°
2026-05-04 00:46 48.57158 -122.46793 12841 ft 356 kts 349°
2026-05-04 00:46 48.59444 -122.47470 12677 ft 345 kts 349°
2026-05-04 00:47 48.61025 -122.47938 12571 ft 337 kts 349°
2026-05-04 00:47 48.64015 -122.48823 12397 ft 323 kts 349°
2026-05-04 00:47 48.66186 -122.49467 12268 ft 313 kts 349°
2026-05-04 00:47 48.68320 -122.50100 12128 ft 304 kts 349°
2026-05-04 00:48 48.70334 -122.50870 11987 ft 296 kts 336°
2026-05-04 00:48 48.72001 -122.52557 11791 ft 293 kts 315°
2026-05-04 00:48 48.73319 -122.54908 11584 ft 293 kts 309°
2026-05-04 00:48 48.74570 -122.57366 11345 ft 295 kts 308°
2026-05-04 00:49 48.75773 -122.59765 11116 ft 297 kts 308°
2026-05-04 00:49 48.76958 -122.62126 10890 ft 298 kts 309°
2026-05-04 00:49 48.78230 -122.64644 10657 ft 288 kts 309°
2026-05-04 00:49 48.79414 -122.66981 10420 ft 274 kts 309°
2026-05-04 00:50 48.80536 -122.69187 10172 ft 262 kts 309°
2026-05-04 00:50 48.81643 -122.71359 9958 ft 252 kts 309°
2026-05-04 00:50 48.82700 -122.73430 9736 ft 244 kts 309°
2026-05-04 00:50 48.83721 -122.75434 9525 ft 236 kts 309°
2026-05-04 00:51 48.84681 -122.77317 9340 ft 229 kts 309°
2026-05-04 00:51 48.85646 -122.79208 9160 ft 225 kts 309°
2026-05-04 00:51 48.86288 -122.80468 9040 ft 224 kts 309°
2026-05-04 00:51 48.87096 -122.82053 8894 ft 223 kts 309°
2026-05-04 00:52 48.87730 -122.83297 8776 ft 223 kts 309°
2026-05-04 00:52 48.88679 -122.85162 8602 ft 223 kts 309°
2026-05-04 00:52 48.89936 -122.87636 8355 ft 223 kts 309°
2026-05-04 00:52 48.90579 -122.88901 8234 ft 223 kts 309°
2026-05-04 00:53 48.91529 -122.90771 8038 ft 224 kts 309°
2026-05-04 00:53 48.92517 -122.92722 7773 ft 228 kts 309°
2026-05-04 00:53 48.93463 -122.94596 7499 ft 226 kts 309°
2026-05-04 00:53 48.94413 -122.96477 7215 ft 223 kts 309°
2026-05-04 00:54 48.95338 -122.98311 6948 ft 219 kts 309°
2026-05-04 00:54 48.96359 -123.00014 6651 ft 214 kts 330°
2026-05-04 00:54 48.97745 -123.00608 6414 ft 205 kts
2026-05-04 00:54 48.99056 -123.00029 6192 ft 204 kts 31°
2026-05-04 00:55 49.00241 -122.98772 5947 ft 207 kts 38°
2026-05-04 00:55 49.01354 -122.97455 5691 ft 210 kts 38°
2026-05-04 00:55 49.02498 -122.96101 5420 ft 212 kts 38°
2026-05-04 00:55 49.03650 -122.94744 5158 ft 212 kts 37°
2026-05-04 00:56 49.04813 -122.93374 5028 ft 207 kts 37°
2026-05-04 00:56 49.05972 -122.92017 4997 ft 207 kts 37°
2026-05-04 00:56 49.07052 -122.90602 4979 ft 209 kts 53°
2026-05-04 00:56 49.07530 -122.88564 5016 ft 209 kts 84°
2026-05-04 00:57 49.07557 -122.86279 4992 ft 212 kts 90°
2026-05-04 00:57 49.07520 -122.84037 4984 ft 211 kts 91°
2026-05-04 00:57 49.07485 -122.81811 4986 ft 210 kts 90°
2026-05-04 00:57 49.07454 -122.79606 4987 ft 204 kts 91°
2026-05-04 00:58 49.07337 -122.77511 4899 ft 193 kts 96°
2026-05-04 00:58 49.07155 -122.75515 4648 ft 190 kts 98°
2026-05-04 00:58 49.06956 -122.73532 4326 ft 191 kts 98°
2026-05-04 00:58 49.06753 -122.71538 4133 ft 186 kts 98°
2026-05-04 00:59 49.06649 -122.69568 4016 ft 188 kts 80°
2026-05-04 00:59 49.07146 -122.67784 3994 ft 186 kts 48°
2026-05-04 00:59 49.08192 -122.66648 3992 ft 186 kts 17°
2026-05-04 00:59 49.09459 -122.66196 3994 ft 188 kts 11°
2026-05-04 01:00 49.10735 -122.65788 3977 ft 186 kts 11°
2026-05-04 01:00 49.12006 -122.65594 3973 ft 181 kts 352°
2026-05-04 01:00 49.13213 -122.66041 3986 ft 181 kts 337°
2026-05-04 01:00 49.14316 -122.66973 3942 ft 186 kts 322°
2026-05-04 01:01 49.15223 -122.68280 3921 ft 184 kts 311°
2026-05-04 01:01 49.16011 -122.69810 3874 ft 182 kts 300°
2026-05-04 01:01 49.16511 -122.71566 3844 ft 180 kts 285°
2026-05-04 01:01 49.16681 -122.73453 3817 ft 180 kts 270°
2026-05-04 01:02 49.16604 -122.75368 3779 ft 181 kts 266°
2026-05-04 01:02 49.16493 -122.77281 3726 ft 180 kts 265°
2026-05-04 01:02 49.16378 -122.79186 3672 ft 180 kts 265°
2026-05-04 01:02 49.16261 -122.81074 3614 ft 181 kts 267°
2026-05-04 01:03 49.16326 -122.82995 3540 ft 182 kts 281°
2026-05-04 01:03 49.16532 -122.84886 3475 ft 182 kts 279°
2026-05-04 01:03 49.16737 -122.86791 3390 ft 180 kts 281°
2026-05-04 01:03 49.16970 -122.88654 3326 ft 176 kts 281°
2026-05-04 01:04 49.17173 -122.90366 3272 ft 177 kts 280°
2026-05-04 01:04 49.17386 -122.92244 3049 ft 178 kts 280°
2026-05-04 01:04 49.17591 -122.94075 2817 ft 172 kts 280°
2026-05-04 01:04 49.17785 -122.95821 2600 ft 161 kts 280°
2026-05-04 01:05 49.17966 -122.97445 2394 ft 155 kts 280°
2026-05-04 01:05 49.18141 -122.99012 2214 ft 150 kts 281°
2026-05-04 01:05 49.18317 -123.00587 2053 ft 151 kts 280°
2026-05-04 01:05 49.18464 -123.02116 1847 ft 150 kts 281°
2026-05-04 01:06 49.18650 -123.03679 1641 ft 148 kts 282°
2026-05-04 01:06 49.18823 -123.05224 1427 ft 147 kts 281°
2026-05-04 01:06 49.19000 -123.06767 1222 ft 150 kts 281°
2026-05-04 01:06 49.19186 -123.08375 1040 ft 153 kts 281°
2026-05-04 01:07 49.19370 -123.09973 857 ft 152 kts 281°
2026-05-04 01:07 49.19509 -123.11217 702 ft 148 kts 281°
2026-05-04 01:07 49.19680 -123.12711 481 ft 146 kts 281°
2026-05-04 01:07 49.19864 -123.14338 283 ft 146 kts 281°
2026-05-04 01:08 49.19987 -123.15419 137 ft 145 kts 281°
2026-05-04 01:08 49.20196 -123.17200 10 ft 133 kts 281°
2026-05-04 01:08 49.20329 -123.18403 10 ft 89 kts 279°
2026-05-04 01:08 49.20398 -123.19101 7 ft 47 kts 267°
2026-05-04 01:09 49.20351 -123.19361 7 ft 3 kts 251°
2026-05-04 01:09 49.20339 -123.19414 8 ft 12 kts 250°
2026-05-04 01:09 49.20315 -123.19519 9 ft 6 kts 249°
2026-05-04 01:09 49.20300 -123.19577 10 ft 6 kts 246°
2026-05-04 01:10 49.20260 -123.19603 9 ft 8 kts 155°
2026-05-04 01:10 49.20237 -123.19491 8 ft 14 kts 100°
2026-05-04 01:10 49.20219 -123.19339 8 ft 14 kts 100°
2026-05-04 01:10 49.20202 -123.19192 10 ft 14 kts 100°
2026-05-04 01:11 49.20185 -123.19048 9 ft 13 kts 100°
2026-05-04 01:11 49.20170 -123.18913 10 ft 13 kts 100°
2026-05-04 01:11 49.20153 -123.18768 9 ft 15 kts 100°
2026-05-04 01:11 49.20134 -123.18594 9 ft 18 kts 100°
2026-05-04 01:12 49.20110 -123.18382 10 ft 21 kts 99°
2026-05-04 01:12 49.20087 -123.18167 10 ft 20 kts 100°
2026-05-04 01:12 49.20062 -123.17960 9 ft 20 kts 100°
2026-05-04 01:12 49.20038 -123.17758 9 ft 19 kts 99°
2026-05-04 01:13 49.20017 -123.17571 9 ft 17 kts 100°
2026-05-04 01:13 49.20005 -123.17468 9 ft 13 kts 101°
2026-05-04 01:13 49.19930 -123.17377 34 ft 9 kts 138°
2026-05-04 01:13 49.19913 -123.17319 9 ft 9 kts 107°
2026-05-04 01:14 49.19893 -123.17247 9 ft 6 kts 120°
2026-05-04 01:14 49.19866 -123.17203 9 ft 6 kts 148°
2026-05-04 01:14 49.19827 -123.17189 9 ft 6 kts 176°
2026-05-04 01:14 49.19799 -123.17189 9 ft 0 kts 181°
2026-05-04 01:15 49.19778 -123.17199 10 ft 0 kts 212°
2026-05-04 01:15 49.19777 -123.17201 10 ft 0 kts 225°
2026-05-04 01:16 49.19776 -123.17211 9 ft 2 kts 256°
2026-05-04 01:16 49.19773 -123.17237 9 ft 3 kts 262°
2026-05-04 01:16 49.19772 -123.17267 9 ft 3 kts 266°
2026-05-04 01:16 49.19770 -123.17293 9 ft 2 kts 264°
2026-05-04 01:17 49.19770 -123.17297 9 ft 0 kts 264°